This is the latest recevied weather packets stored in our database for station/object M0HPP-13. If no packets are shown the sender has not sent any weather packets the latest 10 day(s).
| Time | Temp. | Humidity | Pressure | Rain* | Wind** | Luminosity | Snow |
|---|---|---|---|---|---|---|---|
| 1777492819 | 11.67° C | 71% | 1027.3 hPa | 0 mm | - | 6 W/m² | - |
| 1777492219 | 12.22° C | 70% | 1027.3 hPa | 0 mm | - | 10 W/m² | - |
| 1777491619 | 12.22° C | 71% | 1027.2 hPa | 0 mm | - | 15 W/m² | - |
| 1777491019 | 12.22° C | 71% | 1027.2 hPa | 0 mm | - | 20 W/m² | - |
| 1777490419 | 12.22° C | 71% | 1027.3 hPa | 0 mm | - | 23 W/m² | - |
| 1777489819 | 12.78° C | 69% | 1027.3 hPa | 0 mm | - | 43 W/m² | - |
| 1777489219 | 12.78° C | 68% | 1027.3 hPa | 0 mm | - | 64 W/m² | - |
| 1777488619 | 13.33° C | 67% | 1027.3 hPa | 0 mm | - | 77 W/m² | - |
| 1777488019 | 13.33° C | 67% | 1027.3 hPa | 0 mm | - | 90 W/m² | - |
| 1777487419 | 13.33° C | 66% | 1027.4 hPa | 0 mm | - | 104 W/m² | - |
| 1777486819 | 13.33° C | 66% | 1027.4 hPa | 0 mm | - | 119 W/m² | - |
| 1777486219 | 13.33° C | 66% | 1027.3 hPa | 0 mm | - | 134 W/m² | - |
| 1777485619 | 13.33° C | 65% | 1027.4 hPa | 0 mm | - | 149 W/m² | - |
| 1777485019 | 13.33° C | 66% | 1027.5 hPa | 0 mm | - | 165 W/m² | - |
| 1777484419 | 13.33° C | 67% | 1027.5 hPa | 0 mm | - | 180 W/m² | - |
| 1777483819 | 13.33° C | 66% | 1027.5 hPa | 0 mm | - | 213 W/m² | - |
| 1777483219 | 13.33° C | 67% | 1027.6 hPa | 0 mm | - | 232 W/m² | - |
| 1777482619 | 13.33° C | 67% | 1027.8 hPa | 0 mm | - | 250 W/m² | - |
| 1777482019 | 13.33° C | 68% | 1027.9 hPa | 0 mm | - | 268 W/m² | - |
| 1777481419 | 12.78° C | 67% | 1028 hPa | 0 mm | - | 286 W/m² | - |
| 1777480819 | 12.78° C | 67% | 1028 hPa | 0 mm | - | 299 W/m² | - |
| 1777480219 | 12.78° C | 67% | 1028.1 hPa | 0 mm | - | 231 W/m² | - |
| 1777479619 | 12.78° C | 68% | 1028.2 hPa | 0 mm | - | 258 W/m² | - |
| 1777479019 | 12.78° C | 69% | 1028.2 hPa | 0 mm | - | 352 W/m² | - |
| 1777478419 | 12.78° C | 71% | 1028.3 hPa | 0 mm | - | 392 W/m² | - |
* Rain latest hour (hover to see other rain measurements)
** Current wind speed in m/s (hover to see current wind gust speed)